This demonstration page uses our WeatherBlox Daily Observations layout. Learn more.

Left ArrowRight Arrow

Hourly Observations for May 17, 2017

Temp ( °F °C ) Dew Point ( °F °C ) Humidity (%) Winds ( mph kmh ) Pressure ( in mb ) Visibility ( mi km ) Precip ( " mm )
12:24 am 00:24 Cloudy with Light Rain and Nearby Thunderstorms 61 16 61 16 100 100 E 13 20 29.55 1001 10 16 0.00 0.00
12:32 am 00:32 Cloudy 61 16 59 15 94 94 E 12 19 29.51 999 10 16 0.00 0.00
12:35 am 00:35 Cloudy 61 16 59 15 94 94 E 9 15 29.52 1000 10 16 0.00 0.00
12:55 am 00:55 Mostly Cloudy 61 16 59 15 94 94 E 12 19 29.51 999 10 16 0.00 0.00
12:56 am 00:56 Mostly Cloudy 61 15.9 59 15.1 95 95 E 10 17 29.51 999 10 16 0.05 1.27
1:16 am 01:16 Mostly Cloudy 61 16 59 15 94 94 ESE 13 20 29.50 999 10 16 0.00 0.00
1:36 am 01:36 Mostly Cloudy 61 16 59 15 94 94 ESE 13 20 29.50 999 10 16 0.00 0.00
1:56 am 01:56 Cloudy 61 16.2 59 15.1 93 93 ESE 14 22 29.51 999 10 16 0.00 0.00
2:33 am 02:33 Mostly Cloudy with Light Rain 61 16 59 15 94 94 ESE 10 17 29.47 998 10 16 0.00 0.00
2:43 am 02:43 Cloudy 63 17 59 15 88 88 SE 10 17 29.47 998 10 16 0.00 0.00
2:56 am 02:56 Cloudy 62 16.6 60 15.3 92 92 ESE 12 19 29.48 998 10 16 0.01 0.25
3:40 am 03:40 Mostly Clear with Light Rain 63 17 59 15 88 88 ESE 15 24 29.44 997 10 16 0.00 0.00
3:54 am 03:54 Mostly Clear 63 17 59 15 88 88 ESE 13 20 29.45 997 10 16 0.00 0.00
3:56 am 03:56 Mostly Clear 62 16.7 59 15 90 90 ESE 13 20 29.45 997 10 16 0.00 0.03
3:58 am 03:58 Mostly Clear with Thunderstorms 63 17 59 15 88 88 SE 15 24 29.45 997 10 16 0.00 0.00
4:12 am 04:12 Partly Cloudy with Thunderstorms 63 17 59 15 88 88 SW 10 17 29.49 999 8 13 0.00 0.00
4:19 am 04:19 Mostly Cloudy with Strong Thunderstorms 63 17 57 14 83 83 Calm 29.47 998 2 3 0.00 0.00
4:24 am 04:24 Mostly Cloudy with Thunderstorms 63 17 57 14 83 83 ENE 3 6 29.46 998 4 6 0.00 0.00
4:39 am 04:39 Mostly Cloudy 63 17 59 15 88 88 E 8 13 29.45 997 10 16 0.00 0.00
4:56 am 04:56 Mostly Clear 62 16.7 59 15.2 91 91 ESE 12 19 29.44 997 10 16 0.10 2.54
5:56 am 05:56 Partly Cloudy 62 16.8 59 15.1 90 90 E 7 11 29.44 997 10 16 0.00 0.00
6:56 am 06:56 Mostly Sunny 64 17.6 61 15.9 90 90 SE 12 19 29.43 997 10 16 0.00 0.00
7:56 am 07:56 Mostly Sunny 64 17.9 61 16.2 90 90 ESE 12 19 29.41 996 10 16 0.00 0.00
8:56 am 08:56 Sunny 66 19.1 63 17 88 88 SE 17 28 29.38 995 10 16 0.00 0.00
9:56 am 09:56 Sunny 69 20.4 63 17 81 81 ESE 13 20 29.37 995 10 16 0.00 0.00
10:26 am 10:26 Cloudy 70 21 63 17 78 78 ESE 13 20 29.34 994 10 16 0.00 0.00
10:51 am 10:51 Partly Cloudy with Light Rain 70 21 61 16 73 73 SE 18 30 29.34 994 10 16 0.00 0.00
10:56 am 10:56 Partly Cloudy with Rain 68 20.2 62 16.8 81 81 SE 20 31 29.35 994 9 14 0.01 0.25
11:08 am 11:08 Partly Cloudy 68 20 63 17 83 83 SE 12 19 29.34 993 10 16 0.00 0.00
11:56 am 11:56 Mostly Cloudy 71 21.8 61 16.1 70 70 SSE 20 31 29.32 993 10 16 0.01 0.25
12:56 pm 12:56 Partly Cloudy 73 22.8 60 15.6 64 64 S 13 20 29.31 993 10 16 0.00 0.00
1:56 pm 13:56 Partly Cloudy 75 23.8 56 13.6 53 53 SSE 23 37 29.28 992 10 16 0.00 0.00
2:40 pm 14:40 Partly Cloudy with Light Rain 72 22 57 14 61 61 S 36 57 29.31 993 10 16 0.00 0.00
2:48 pm 14:48 Partly Cloudy with Strong Thunderstorms 63 17 55 13 77 77 S 10 17 29.31 993 4 6 0.00 0.00
2:56 pm 14:56 Partly Cloudy with Thunderstorms 60 15.7 53 11.5 76 76 S 13 20 29.32 993 7 11 0.21 5.33
3:15 pm 15:15 Partly Cloudy with Nearby Thunderstorms 61 16 55 13 83 83 SW 18 30 29.33 993 10 16 0.00 0.00
3:48 pm 15:48 Mostly Cloudy with Light Rain 63 17 55 13 77 77 WSW 14 22 29.33 993 10 16 0.00 0.00
3:56 pm 15:56 Mostly Cloudy with Light Rain 63 17.3 54 12.4 73 73 WSW 9 15 29.33 993 10 16 0.00 0.03
4:08 pm 16:08 Mostly Cloudy 66 19 55 13 68 68 SW 9 15 29.33 993 10 16 0.00 0.00
4:56 pm 16:56 Cloudy 67 19.3 55 12.5 65 65 SSW 16 26 29.35 994 10 16 0.00 0.03
5:56 pm 17:56 Cloudy 67 19.4 54 12.2 63 63 SW 15 24 29.38 995 10 16 0.00 0.00
6:03 pm 18:03 Cloudy with Light Rain 68 20 54 12 60 60 WSW 24 39 29.38 995 10 16 0.00 0.00
6:15 pm 18:15 Cloudy 66 19 54 12 64 64 SW 16 26 29.39 995 10 16 0.00 0.00
6:56 pm 18:56 Cloudy 66 18.7 52 11 61 61 SW 14 22 29.39 995 10 16 0.00 0.03
7:56 pm 19:56 Mostly Cloudy 67 19.2 54 12.2 64 64 SSW 15 24 29.41 996 10 16 0.00 0.00
8:56 pm 20:56 Cloudy 66 19.1 55 12.8 67 67 W 14 22 29.44 997 10 16 0.00 0.00
9:56 pm 21:56 Mostly Cloudy 64 17.7 54 12.4 71 71 WSW 21 33 29.49 999 10 16 0.00 0.00
10:56 pm 22:56 Cloudy 63 17.4 56 13.5 78 78 W 17 28 29.54 1000 10 16 0.00 0.00
11:56 pm 23:56 Cloudy 61 16 52 11.2 73 73 W 21 33 29.59 1002 10 16 0.00 0.00

Powered by AerisWeather